Location: Brompton
(51.4000°N, 0.5333°E)
Time: 03:22:47
(UTC+00:00)

USA 215 - Pass Details

Date: 28 September 2021
Orbit: 1093 x 1114 km, 123.0° (Epoch: 14 October)

Event Time Altitude Azimuth Distance (km) Brightness Sun altitude
Exits shadow 20:30:19 37° 178° (S) 1,638 3.9 -25.9°
Maximum altitude 20:32:20 48° 222° (SW) 1,408 3.8 -26.2°
Drops below altitude 10° 20:38:37 10° 296° (WNW) 2,967 6.5 -27.0°
Sets 20:41:14 0° 302° (WNW) 3,931 7.5 -27.3°
